Weather History for KGEZ - October, 2014

Change the Weather History Date:

Thursday, October 16, 2014

  Actual Average Record
Temperature  
Mean Temperature 60 °F 54 °F  
Max Temperature 64 °F 66 °F 80 °F (1998)
Min Temperature 55 °F 42 °F 32 °F (2010)
Degree Days  
Heating Degree Days 5 11  
Month to date heating degree days 131 148  
Since 1 July heating degree days 201 233  
Cooling Degree Days 0 0  
Month to date cooling degree days 12 11  
Year to date cooling degree days 1079 910  
Growing Degree Days 10 (Base 50)    
Moisture  
Dew Point 53 °F    
Average Humidity 78    
Maximum Humidity 93    
Minimum Humidity 63    
Precipitation  
Precipitation T in 0.11 in 1.07 in (2006)
Month to date precipitation 3.11 1.68  
Year to date precipitation 32.74 35.13  
Sea Level Pressure  
Sea Level Pressure 29.79 in    
Wind  
Wind Speed 8 mph (WNW)    
Max Wind Speed 14 mph    
Max Gust Speed 17 mph    
Visibility 8 miles    
Events Rain    
T = Trace of Precipitation, MM = Missing Value Source: NWS Daily Summary

Daily Weather History Graph

Daily Weather History Graph

Search for Another Location

Airport or City:

Trip Planner

Search our weather history database for the weather conditions in past years. The results will help you decide how hot, cold, wet, or windy it might be!

Date:

Astronomy

Oct. 16, 2014 Rise Set
Actual Time 7:54 AM EDT 7:02 PM EDT
Civil Twilight 7:27 AM EDT 7:29 PM EDT
Nautical Twilight 6:55 AM EDT 8:00 PM EDT
Astronomical Twilight 6:24 AM EDT 8:32 PM EDT
Moon 1:05 AM EDT (10/16) 3:12 PM EDT (10/16)
Length of Visible Light 12h 02m
Length of Day
11h 08m
Last Quarter, 42% of the Moon is Illuminated
Oct 16
Last Quarter
Oct 23
New
Oct 30
First Quarter
Nov 6
Full
Nov 14
Last Quarter

Hourly Weather History & Observations

Time (EDT) Temp. Dew Point Humidity Pressure Visibility Wind Dir Wind Speed Gust Speed Precip Events Conditions
12:01 AM 55.9 °F 54.0 °F 93% 29.76 in 4.0 mi Calm Calm - 0.01 in Rain Light Rain
12:19 AM 55.9 °F 54.0 °F 93% 29.75 in 2.5 mi Calm Calm - 0.01 in Rain Light Rain
12:31 AM 55.9 °F 54.0 °F 93% 29.75 in 4.0 mi Calm Calm - 0.01 in   Overcast
12:45 AM 55.9 °F 54.0 °F 93% 29.75 in 3.0 mi Calm Calm - 0.02 in Rain Light Rain
12:53 AM 55.9 °F 54.0 °F 93% 29.74 in 3.0 mi Calm Calm - 0.02 in Rain Light Rain
1:03 AM 55.9 °F 54.0 °F 93% 29.74 in 5.0 mi Calm Calm - 0.00 in   Overcast
1:18 AM 55.9 °F 54.0 °F 93% 29.75 in 5.0 mi NW 4.6 mph - 0.00 in   Overcast
1:33 AM 55.9 °F 54.0 °F 93% 29.74 in 7.0 mi NNW 3.5 mph - 0.00 in   Overcast
1:53 AM 55.9 °F 54.0 °F 93% 29.74 in 9.0 mi NNW 4.6 mph - 0.00 in   Overcast
2:04 AM 55.9 °F 53.1 °F 90% 29.74 in 8.0 mi NNW 4.6 mph - N/A   Overcast
2:11 AM 55.9 °F 53.1 °F 90% 29.74 in 8.0 mi NNW 4.6 mph - N/A   Overcast
2:27 AM 55.9 °F 53.1 °F 90% 29.74 in 7.0 mi North 3.5 mph - N/A   Overcast
2:53 AM 55.9 °F 53.1 °F 90% 29.74 in 6.0 mi NNW 4.6 mph - N/A   Overcast
3:53 AM 55.9 °F 53.1 °F 90% 29.75 in 8.0 mi NW 5.8 mph - N/A   Overcast
4:06 AM 55.9 °F 53.1 °F 90% 29.75 in 8.0 mi NW 6.9 mph - N/A   Overcast
4:32 AM 55.9 °F 53.1 °F 90% 29.75 in 10.0 mi NNW 6.9 mph - N/A   Overcast
4:41 AM 55.9 °F 53.1 °F 90% 29.75 in 9.0 mi NW 6.9 mph - N/A   Overcast
4:44 AM 55.9 °F 53.1 °F 90% 29.75 in 8.0 mi NW 8.1 mph - N/A   Overcast
4:53 AM 55.0 °F 53.1 °F 93% 29.75 in 4.0 mi NNW 8.1 mph - N/A   Overcast
5:08 AM 55.9 °F 53.1 °F 90% 29.75 in 8.0 mi North 4.6 mph - N/A   Overcast
5:53 AM 55.0 °F 52.0 °F 89% 29.76 in 9.0 mi NW 6.9 mph - N/A   Overcast
6:05 AM 55.0 °F 53.1 °F 93% 29.77 in 8.0 mi WNW 5.8 mph - N/A   Mostly Cloudy
6:53 AM 55.0 °F 53.1 °F 93% 29.78 in 8.0 mi NW 3.5 mph - N/A   Overcast
7:53 AM 55.9 °F 53.1 °F 90% 29.80 in 7.0 mi WNW 3.5 mph - N/A   Overcast
8:53 AM 55.9 °F 53.1 °F 90% 29.82 in 6.0 mi NW 4.6 mph - N/A   Overcast
9:20 AM 55.9 °F 53.1 °F 90% 29.81 in 6.0 mi WNW 4.6 mph - N/A   Overcast
9:33 AM 57.0 °F 53.1 °F 87% 29.83 in 6.0 mi WNW 6.9 mph - N/A   Overcast
9:53 AM 57.0 °F 53.1 °F 87% 29.83 in 6.0 mi WNW 8.1 mph - N/A   Overcast
10:22 AM 59.0 °F 54.0 °F 83% 29.83 in 7.0 mi WNW 5.8 mph - N/A   Overcast
10:36 AM 59.0 °F 53.1 °F 81% 29.83 in 8.0 mi NW 9.2 mph - N/A   Overcast
10:43 AM 57.9 °F 53.1 °F 84% 29.83 in 8.0 mi WNW 10.4 mph - N/A   Overcast
10:53 AM 57.9 °F 53.1 °F 84% 29.84 in 8.0 mi WNW 11.5 mph - N/A   Overcast
11:33 AM 60.1 °F 53.1 °F 78% 29.84 in 9.0 mi WNW 8.1 mph - N/A   Overcast
11:42 AM 60.1 °F 54.0 °F 80% 29.84 in 8.0 mi West 9.2 mph - N/A   Overcast
11:53 AM 60.1 °F 53.1 °F 78% 29.84 in 9.0 mi WNW 10.4 mph - N/A   Overcast
12:12 PM 61.0 °F 53.1 °F 75% 29.84 in 10.0 mi WNW 8.1 mph - N/A   Overcast
12:53 PM 62.1 °F 52.0 °F 70% 29.83 in 10.0 mi WNW 8.1 mph - N/A   Mostly Cloudy
1:53 PM 62.1 °F 52.0 °F 70% 29.82 in 10.0 mi West 11.5 mph - N/A   Overcast
2:53 PM 64.0 °F 51.1 °F 63% 29.81 in 10.0 mi West 8.1 mph - N/A   Overcast
3:53 PM 62.1 °F 52.0 °F 70% 29.81 in 10.0 mi West 9.2 mph - N/A   Overcast
4:53 PM 62.1 °F 52.0 °F 70% 29.81 in 10.0 mi West 11.5 mph - N/A   Overcast
5:53 PM 62.1 °F 51.1 °F 67% 29.81 in 10.0 mi West 10.4 mph - N/A   Overcast
6:53 PM 60.1 °F 51.1 °F 72% 29.81 in 10.0 mi WSW 9.2 mph - N/A   Overcast
7:53 PM 57.9 °F 52.0 °F 81% 29.82 in 10.0 mi SW 8.1 mph - N/A   Mostly Cloudy
8:53 PM 57.9 °F 52.0 °F 81% 29.82 in 10.0 mi SSW 9.2 mph - N/A   Overcast
9:53 PM 57.9 °F 52.0 °F 81% 29.83 in 10.0 mi SSW 11.5 mph - N/A   Overcast
10:09 PM 57.0 °F 52.0 °F 83% 29.83 in 10.0 mi SSW 11.5 mph - N/A   Overcast
10:19 PM 57.0 °F 52.0 °F 83% 29.83 in 10.0 mi SSW 11.5 mph - N/A   Overcast
10:51 PM 57.2 °F 51.8 °F 82% 29.83 in 10.0 mi SSW 12.7 mph - N/A   Overcast
10:53 PM 57.0 °F 52.0 °F 83% 29.83 in 10.0 mi SSW 11.5 mph - N/A   Overcast
11:53 PM 55.9 °F 50.0 °F 80% 29.82 in 10.0 mi SSW 10.4 mph - N/A   Overcast